Location: Windsor
(43.2292°N, 89.3015°W)
Time: 04:51:11
(UTC+00:00)

X-37B - Pass Details

Date: 02 December 2023
Orbit: 277 x 277 km, 45.0° (Epoch: 01 November)

Event Time Altitude Azimuth Distance (km) Brightness Sun altitude
Rises 00:33:08 0° 264° (W) 1,912 5.6 -23.1°
Reaches altitude 10° 00:35:04 10° 267° (W) 1,100 4.0 -23.4°
Enters shadow 00:35:38 15° 270° (W) 862 3.3 -23.6°
